Other Public Products
Issued by NWS Charleston, SC

Current Version | Previous Version | Graphics & Text | Print | Product List | Glossary On
Versions: 1 2 3 4 5 6 7 8 9 10 11 12 13 14 15 16 17 18 19 20 21 22 23 24 25 26 27 28 29 30 31 32 33 34 35 36 37 38 39 40 41 42 43 44 45 46 47 48 49 50
437
FPUS82 KCHS 190327
OPUCHS

TEST...KCHS/KSAV Gateway Observations...TEST
National Weather Service Charleston SC
1000 PM EST WED JAN 18 2017

NOTE: "fair" indicates few or no clouds below 12,000 feet with no
significant weather and/or obstructions to visibility.

SCZ050-WAZ558-NCZ071-TXZ119-213-PAZ071-DCZ001-FLZ074-172-MI076-
NYZ176-178-MAZ016-IL014-TNZ027-NJZ106-GAZ044-MD014-190400-
...Gateway Observations for Charleston International...

CITY           SKY/WX    TMP DP  RH WIND       PRES   REMARKS
Chas Airport   CLEAR     65  58  78 W5        30.04R
Seattle        CLOUDY    47  40  76 SE8       29.25R
Charlotte      CLEAR     52  31  44 N3        30.05R
Dallas DFW     CLOUDY    53  50  89 SE5       29.98S
Dallas Love    CLOUDY    53  49  86 CALM      30.00S
Philladelphia  CLOUDY    45  38  76 N3        30.05S
Wash National  MOCLDY    48  36  63 NW14      30.08F
Baltimore      CLOUDY    47  37  68 NW7       30.06F
Miami          PTCLDY    73  63  70 S5        30.13R
Detroit        CLOUDY    36  33  89 SW8       30.07F WCI  30
Newark         MOCLDY    41  36  82 NW6       30.04R
Laguardia      CLOUDY    42  36  79 N8        30.02S
J F K          MOCLDY    41  35  79 N8        30.03F
Boston Logan   CLOUDY    33  33 100 NW8       30.02F WCI  26
Ft. Lauderdale MOCLDY    72  63  73 SW5       30.12R
Chicago O`Hare CLOUDY    35  32  88 SW10      30.05F WCI  27
Chicago Midway CLOUDY    35  31  85 SW7       30.06F WCI  29
Houston Bush   FOG       58  57  97 NW5       29.99S VSB 1/2
Houston Hobby  CLOUDY    60  58  92 W9        29.98R
Nashville      CLOUDY    46  40  79 CALM      30.13S
Atlanta        MOCLDY    60  52  74 NW5       30.10R

$$

GAZ044-118-TXZ119-213-NCZ071-DCZ001-MDZ014-506-PAZ021-071-NJZ106-
NYZ176-178-MAZ106-OHZ011-021-055-MIZ076-KYZ091-ILZ014-INZ047-
MNZ060-190400-
...Gateway Observations for Savannah International...

CITY           SKY/WX    TMP DP  RH WIND       PRES   REMARKS
Savannah Arpt  CLEAR     65  57  75 W7        30.06R
Atlanta        MOCLDY    60  52  74 NW5       30.10R
Charlotte      CLEAR     52  31  44 N3        30.05R
Dallas DFW     CLOUDY    53  50  89 SE5       29.98S
Houston Bush   FOG       58  57  97 NW5       29.99S VSB 1/2
Wash National  MOCLDY    48  36  63 NW14      30.08F
Wash Dulles    MOCLDY    43  34  70 NW3       30.09S
Baltimore      CLOUDY    47  37  68 NW7       30.06F
Philadelphia   CLOUDY    45  38  76 N3        30.05S
Newark         MOCLDY    41  36  82 NW6       30.04R
Laguardia      CLOUDY    42  36  79 N8        30.02S
J F K          MOCLDY    41  35  79 N8        30.03F
Boston         CLOUDY    33  33 100 NW8       30.02F WCI  26
Pittsburg      DRIZZLE   38  37  97 SW8       30.08S WCI  32
Akron          CLOUDY    38  35  89 SW10      30.08S FOG     WCI  31
Cleveland      DRIZZLE   39  35  86 W9        30.12R WCI  33
Cincinnati     CLOUDY    39  36  89 SW3       30.13F
Columbus         N/A     38  36  92 SW5       30.15S WCI  35
Detroit        CLOUDY    36  33  89 SW8       30.07F WCI  30
Chicago O`Hare CLOUDY    35  32  88 SW10      30.05F WCI  27
Minneapolis    CLOUDY    33  30  88 SE5       29.84F WCI  29
Indianapolis   CLOUDY    37  34  89 S6        30.12F WCI  32

$$




USA.gov is the U.S. government's official web portal to all federal, state and local government web resources and services.